When you browse on this site, cookies collect data to enhance your experience and personalize the content and advertising you see.
Visit our Privacy Policy to learn more. By continuing to use the site, you agree to this use of cookies and data.
  • In Portugal
  • List of Countries
  • For 7 days
  • Water Temperature
  • Weather Map
  • Weather Widgets
  • user-avatar
    Login

    Hourly Weather Larisa

    Today, 11 December, Wednesday

    Time Temperature Precipitation Wind Pressure Humidity
    00:00 +11°C° 5.8 mm 3 mps 748 mmHg 95%
    01:00 +11°C° 0 mm 4 mps 748 mmHg 96%
    02:00 +11°C° 6.5 mm 4 mps 748 mmHg 95%
    03:00 +10°C° 6.5 mm 4 mps 747 mmHg 95%
    04:00 +10°C° 6.5 mm 4 mps 747 mmHg 95%
    05:00 +10°C° 4.4 mm 4 mps 748 mmHg 94%
    06:00 +9°C° 4.4 mm 5 mps 748 mmHg 93%
    07:00 +9°C° 4.4 mm 5 mps 748 mmHg 93%
    08:00 +8°C° 6.3 mm 4 mps 748 mmHg 93%
    09:00 +8°C° 6.3 mm 4 mps 749 mmHg 93%
    10:00 +7°C° 6.3 mm 4 mps 749 mmHg 93%
    11:00 +7°C° 5.7 mm 4 mps 749 mmHg 92%
    12:00 +8°C° 5.7 mm 3 mps 749 mmHg 92%
    13:00 +7°C° 5.7 mm 3 mps 748 mmHg 91%
    14:00 +7°C° 0.4 mm 3 mps 748 mmHg 90%
    15:00 +7°C° 0.4 mm 2 mps 748 mmHg 89%
    16:00 +8°C° 0.4 mm 2 mps 748 mmHg 87%
    17:00 +8°C° 0.1 mm 2 mps 749 mmHg 87%
    18:00 +8°C° 0.1 mm 2 mps 749 mmHg 88%
    19:00 +8°C° 0.1 mm 2 mps 749 mmHg 88%
    20:00 +9°C° 0.2 mm 1 mps 749 mmHg 89%
    21:00 +9°C° 0.2 mm 1 mps 749 mmHg 89%
    22:00 +9°C° 0.2 mm 1 mps 749 mmHg 90%
    23:00 +9°C° 0 mm 1 mps 749 mmHg 90%

    Tomorrow, 12 December, Thursday

    Time Temperature Precipitation Wind Pressure Humidity
    00:00 +9°C° 0 mm 1 mps 748 mmHg 90%
    01:00 +9°C° 0 mm 1 mps 748 mmHg 89%
    02:00 +9°C° 0 mm 1 mps 748 mmHg 90%
    03:00 +9°C° 0 mm 1 mps 747 mmHg 90%
    04:00 +9°C° 0 mm 1 mps 747 mmHg 91%
    05:00 +9°C° 0 mm 1 mps 747 mmHg 91%
    06:00 +8°C° 0 mm 1 mps 747 mmHg 91%
    07:00 +8°C° 0 mm 1 mps 748 mmHg 91%
    08:00 +9°C° 0 mm 1 mps 748 mmHg 87%
    09:00 +10°C° 0 mm 1 mps 748 mmHg 84%
    10:00 +11°C° 0 mm 1 mps 748 mmHg 80%
    11:00 +12°C° 0 mm 1 mps 747 mmHg 78%
    12:00 +12°C° 0 mm 1 mps 747 mmHg 76%
    13:00 +13°C° 0 mm 1 mps 747 mmHg 75%
    14:00 +12°C° 0 mm 1 mps 747 mmHg 77%
    15:00 +12°C° 0 mm 1 mps 747 mmHg 80%
    16:00 +11°C° 0 mm 1 mps 747 mmHg 83%
    17:00 +11°C° 0 mm 1 mps 747 mmHg 84%
    18:00 +10°C° 0 mm 0 mps 747 mmHg 86%
    19:00 +9°C° 0 mm 0 mps 747 mmHg 87%
    20:00 +9°C° 0 mm 0 mps 747 mmHg 88%
    21:00 +9°C° 0 mm 0 mps 747 mmHg 88%
    22:00 +9°C° 0 mm 0 mps 747 mmHg 89%
    23:00 +8°C° 0 mm 0 mps 747 mmHg 89%

    Day after tomorrow, 13 December, Friday

    Time Temperature Precipitation Wind Pressure Humidity
    00:00 +8°C° 0 mm 0 mps 747 mmHg 89%
    01:00 +8°C° 0 mm 0 mps 746 mmHg 90%
    02:00 +8°C° 0 mm 0 mps 746 mmHg 90%
    03:00 +8°C° 0 mm 0 mps 746 mmHg 90%
    04:00 +8°C° 0 mm 0 mps 746 mmHg 90%
    05:00 +8°C° 0 mm 0 mps 746 mmHg 90%
    06:00 +8°C° 0 mm 0 mps 746 mmHg 90%
    07:00 +8°C° 0 mm 0 mps 746 mmHg 90%
    08:00 +9°C° 0 mm 0 mps 746 mmHg 86%
    09:00 +11°C° 0 mm 1 mps 746 mmHg 83%
    10:00 +12°C° 0 mm 1 mps 745 mmHg 79%
    11:00 +12°C° 0 mm 1 mps 745 mmHg 77%
    12:00 +13°C° 0 mm 1 mps 745 mmHg 74%
    13:00 +13°C° 0 mm 2 mps 744 mmHg 72%
    14:00 +13°C° 0 mm 2 mps 744 mmHg 74%
    15:00 +12°C° 0 mm 1 mps 744 mmHg 77%
    16:00 +12°C° 0 mm 1 mps 743 mmHg 79%
    17:00 +11°C° 0 mm 1 mps 743 mmHg 79%
    18:00 +11°C° 0 mm 1 mps 743 mmHg 80%
    19:00 +11°C° 0 mm 1 mps 743 mmHg 80%
    20:00 +10°C° 0 mm 1 mps 743 mmHg 80%
    21:00 +10°C° 0 mm 1 mps 743 mmHg 81%
    22:00 +10°C° 0 mm 1 mps 743 mmHg 81%
    23:00 +10°C° 0 mm 1 mps 742 mmHg 81%

    14 December, Saturday

    Time Temperature Precipitation Wind Pressure Humidity
    00:00 +10°C° 0 mm 1 mps 742 mmHg 80%
    01:00 +10°C° 0 mm 1 mps 741 mmHg 80%
    02:00 +10°C° 0 mm 1 mps 740 mmHg 79%
    03:00 +10°C° 0 mm 1 mps 740 mmHg 78%
    04:00 +10°C° 0 mm 1 mps 739 mmHg 78%
    05:00 +9°C° 0.2 mm 2 mps 739 mmHg 79%
    06:00 +9°C° 0.2 mm 2 mps 739 mmHg 81%
    07:00 +9°C° 0.2 mm 2 mps 739 mmHg 83%
    08:00 +10°C° 1.5 mm 2 mps 739 mmHg 86%
    09:00 +10°C° 1.5 mm 2 mps 739 mmHg 88%
    10:00 +10°C° 1.5 mm 2 mps 740 mmHg 91%
    11:00 +10°C° 1.8 mm 2 mps 740 mmHg 91%
    12:00 +10°C° 1.8 mm 2 mps 740 mmHg 91%
    13:00 +12°C° 1.8 mm 2 mps 741 mmHg 91%
    14:00 +12°C° 0.5 mm 2 mps 742 mmHg 91%
    15:00 +12°C° 0.5 mm 2 mps 742 mmHg 91%
    16:00 +12°C° 0.5 mm 2 mps 743 mmHg 92%
    17:00 +11°C° 0.1 mm 1 mps 745 mmHg 91%
    18:00 +11°C° 0.1 mm 1 mps 746 mmHg 91%
    19:00 +11°C° 0.1 mm 1 mps 747 mmHg 91%
    20:00 +11°C° 0 mm 1 mps 748 mmHg 91%
    21:00 +10°C° 0 mm 2 mps 749 mmHg 91%
    22:00 +10°C° 0 mm 2 mps 750 mmHg 91%
    23:00 +10°C° 0 mm 2 mps 751 mmHg 90%

    15 December, Sunday

    Time Temperature Precipitation Wind Pressure Humidity
    00:00 +11°C° 0 mm 1 mps 752 mmHg 90%
    01:00 +11°C° 0 mm 1 mps 752 mmHg 90%
    02:00 +11°C° 0 mm 1 mps 753 mmHg 90%
    03:00 +11°C° 0 mm 1 mps 753 mmHg 89%
    04:00 +11°C° 0 mm 1 mps 754 mmHg 89%
    05:00 +10°C° 0 mm 0 mps 755 mmHg 89%
    06:00 +11°C° 0 mm 0 mps 755 mmHg 88%
    07:00 +11°C° 0 mm 0 mps 756 mmHg 88%
    08:00 +12°C° 0 mm 0 mps 757 mmHg 85%
    09:00 +12°C° 0 mm 0 mps 757 mmHg 82%
    10:00 +14°C° 0 mm 1 mps 758 mmHg 80%
    11:00 +15°C° 0 mm 1 mps 758 mmHg 78%
    12:00 +16°C° 0 mm 1 mps 757 mmHg 75%
    13:00 +18°C° 0 mm 1 mps 757 mmHg 73%
    14:00 +15°C° 0 mm 0 mps 758 mmHg 77%
    15:00 +14°C° 0 mm 0 mps 758 mmHg 80%
    16:00 +13°C° 0 mm 0 mps 758 mmHg 84%
    17:00 +13°C° 0 mm 0 mps 759 mmHg 85%
    18:00 +12°C° 0 mm 0 mps 759 mmHg 86%
    19:00 +12°C° 0 mm 0 mps 759 mmHg 87%
    20:00 +12°C° 0 mm 0 mps 760 mmHg 87%
    21:00 +12°C° 0 mm 0 mps 760 mmHg 87%
    22:00 +11°C° 0 mm 0 mps 760 mmHg 88%
    23:00 +11°C° 0 mm 0 mps 760 mmHg 88%

    16 December, Monday

    Time Temperature Precipitation Wind Pressure Humidity
    00:00 +11°C° 0 mm 0 mps 760 mmHg 88%
    01:00 +12°C° 0 mm 1 mps 760 mmHg 88%
    02:00 +10°C° 0 mm 0 mps 760 mmHg 88%
    03:00 +10°C° 0 mm 0 mps 760 mmHg 88%
    04:00 +10°C° 0 mm 0 mps 760 mmHg 88%
    05:00 +10°C° 0 mm 0 mps 760 mmHg 88%
    06:00 +10°C° 0 mm 0 mps 760 mmHg 88%
    07:00 +9°C° 0 mm 0 mps 761 mmHg 88%
    08:00 +11°C° 0 mm 0 mps 761 mmHg 83%
    09:00 +12°C° 0 mm 0 mps 761 mmHg 79%
    10:00 +13°C° 0 mm 0 mps 761 mmHg 74%
    11:00 +14°C° 0 mm 0 mps 761 mmHg 72%
    12:00 +15°C° 0 mm 0 mps 760 mmHg 69%
    13:00 +16°C° 0 mm 0 mps 760 mmHg 67%
    14:00 +15°C° 0 mm 0 mps 760 mmHg 71%
    15:00 +14°C° 0 mm 0 mps 760 mmHg 75%
    16:00 +13°C° 0 mm 0 mps 760 mmHg 79%
    17:00 +12°C° 0 mm 0 mps 760 mmHg 79%
    18:00 +12°C° 0 mm 0 mps 760 mmHg 80%
    19:00 +12°C° 0 mm 0 mps 760 mmHg 80%
    20:00 +11°C° 0 mm 0 mps 761 mmHg 81%
    21:00 +11°C° 0 mm 0 mps 761 mmHg 81%
    22:00 +11°C° 0 mm 0 mps 761 mmHg 81%
    23:00 +11°C° 0 mm 0 mps 761 mmHg 82%
    Show more